Location: *
(45.9500°N, 9.0833°E)
Time: 05:24:28
(UTC+00:00)

SR - Pass Details

Date: 21 June 2021
Orbit: 577 x 878 km, 66.7° (Epoch: 24 July)

Event Time Altitude Azimuth Distance (km) Brightness Sun altitude
Rises 01:09:14 0° 320° (NW) 3,275 ? -16.7°
Reaches altitude 10° 01:11:56 10° 311° (NW) 2,291 ? -16.5°
Maximum altitude 01:16:32 33° 249° (WSW) 1,201 ? -16.2°
Enters shadow 01:17:58 27° 217° (SW) 1,322 ? -16.1°
Drops below altitude 10° 01:20:47 10° 186° (S) 2,099 - -15.8°
Sets 01:23:09 0° 176° (S) 2,959 - -15.6°
